Regional Weather Roundup
Issued by NWS Little Rock, AR

Home | Current Version | Previous Version | Graphics & Text | Print | Product List | Glossary On
Versions: 1 2 3 4 5 6 7 8 9 10 11 12 13 14 15 16 17 18 19 20 21 22 23 24 25 26 27 28
000
ASUS44 KLZK 300105
RWRLZK

WEATHER ROUNDUP FOR ARKANSAS
NATIONAL WEATHER SERVICE LITTLE ROCK AR
800 PM CDT MON AUG 29 2016

NOTE: "FAIR" INDICATES FEW OR NO CLOUDS BELOW 12,000 FEET WITH NO
SIGNIFICANT WEATHER AND/OR OBSTRUCTIONS TO VISIBILITY.

ARZ001-003-010-029-300200-
NORTHWEST ARKANSAS

CITY           SKY/WX    TMP DP  RH WIND       PRES   REMARKS
FAYETTEVILLE   PTCLDY    79  70  74 CALM      30.10S
FORT SMITH     CLOUDY    77  70  79 CALM      30.05R
HARRISON       CLOUDY    73  69  87 CALM      30.12S
BENTONVILLE    PTCLDY    79  66  65 E6        30.11S
ROGERS         CLOUDY    77  69  76 E8        30.12S
SILOAM SPGS    CLEAR     79  63  57 NE3       30.08S
HIGHFILL       CLOUDY    81  71  71 E5        30.10S HX  85
SPRINGDALE     PTCLDY    79  73  83 E6        30.12S
$$

ARZ004-005-016-300200-
NORTH CENTRAL ARKANSAS

CITY           SKY/WX    TMP DP  RH WIND       PRES   REMARKS
BATESVILLE     MOCLDY    82  73  74 CALM      30.07R HX  88
FLIPPIN        CLOUDY    75  70  83 CALM      30.07S
MTN HOME       CLOUDY    74  73  97 CALM      30.09S
$$

ARZ040-041-300200-
WEST CENTRAL ARKANSAS

CITY           SKY/WX    TMP DP  RH WIND       PRES   REMARKS
MENA           CLEAR     81  75  83 CALM      30.08R HX  86
MOUNT IDA      CLEAR     81  74  79 CALM      30.05R HX  86
$$

ARZ009-017-025-026-028-300200-
NORTHEAST ARKANSAS

CITY           SKY/WX    TMP DP  RH WIND       PRES   REMARKS
JONESBORO      PTCLDY    82  76  81 NE3       30.04R HX  89
NEWPORT        CLOUDY    79  75  87 NE7       30.05R FOG
WALNUT RIDGE   PTCLDY    84  73  70 N5        30.05R HX  91
BLYTHEVILLE    CLEAR     83  77  82 NE6       30.05R HX  92
$$

ARZ022-023-033-042-044-300200-
CENTRAL ARKANSAS

CITY           SKY/WX    TMP DP  RH WIND       PRES   REMARKS
LITTLE ROCK    PTCLDY    84  66  54 E8        30.03R HX  86
N LITTLE ROCK    N/A     84  76  76 E5        30.01R HX  92
JACKSONVILLE   PTCLDY    84  77  80 CALM      30.03R HX  94
SEARCY         PTCLDY    84  77  79 NE5       30.06R HX  94
HOT SPRINGS    CLEAR     84  73  69 E6        30.04R HX  90
RUSSELLVILLE   CLOUDY    76  73  91 NW3       30.05R
$$

ARZ036-300200-
EAST ARKANSAS

CITY           SKY/WX    TMP DP  RH WIND       PRES   REMARKS
WEST MEMPHIS   PTCLDY    81  76  84 NE3       30.03R HX  87
$$

ARZ050-053-066-070-073-300200-
SOUTHWEST ARKANSAS

CITY           SKY/WX    TMP DP  RH WIND       PRES   REMARKS
ARKADELPHIA    FAIR      81  77  88 CALM      30.03R HX  88
TEXARKANA      PTCLDY    82  74  76 CALM      30.01S HX  88
EL DORADO      PTCLDY    84  74  71 NE10      30.01R HX  91
DE QUEEN       CLEAR     82  75  79 CALM      30.00R HX  89
$$

ARZ056-057-069-300200-
SOUTHEAST ARKANSAS

CITY           SKY/WX    TMP DP  RH WIND       PRES   REMARKS
PINE BLUFF     CLOUDY    78  72  81 CALM      30.03S
STUTTGART        N/A     77  70  78 N5        30.03S
MONTICELLO     CLOUDY    79  75  87 CALM      30.01F

$$






USA.gov is the U.S. government's official web portal to all federal, state and local government web resources and services.